STARLINK-34167, 64228

Orbit data source: Space-Track

STARLINK-34167, 64228 is a payload satellite owned by SpaceX/Seattle (US) in LEO that was launched on Sat, 31 May 2025 UTC via an FALCON 9 launch vehicle from the Air Force Western Test Range (AFWTR). Payload-class satellites include a variety of spacecraft equipped with specific instruments for various scientific and technological missions. These include communications satellites like Starlink; space stations such as the ISS; scientific satellites like the Hubble; Earth observation satellites from companies like Planet Labs, Umbra, and HawkEye 360; GPS; miniature CubeSats for education and research; and military/defense satellites.

Loading next visibility...
Identifier
64228, 2025-117AB
Orbit
LEO
Country
Flag of USUS
Related business
Manufacturer
SpaceX/Seattle
Mission
Operational Commercial Communications
Bus & Motor
STARLINK V2MO, Unknown motor
Mass
575 kg wet, ~530 kg dry
Launch date (UTC)
2025-05-31 (1 year ago)
Launch vehicle
FALCON 9
Launch site
Air Force Western Test Range (AFWTR)
Object type
Payload
Rocket body
Debris
Shape & HBR
Box + 1 Pan, 17.7 m
Radar Cross Section
41.120 m², Large (>1 m²)

Expand to show TLE details & history
Last TLE update: 23 hours ago

TLE from 23 hours ago
0 STARLINK-34167
1 64228U 25117AB  26235.32586750  .00029305  00000-0  87545-3 0  9993
2 64228  53.1601 341.6800 0000844  83.7664 276.3435 15.34386602 70120
Epoch: 2026-08-23T07:49Z
TLE epoch observation values (Epoch: 2026-08-23T07:49:14.952Z)
Latitude
0.00003°
Longitude
-107.25581°
Altitude
463.581 km
Speed
7.636 km/s
True Right ascension
22h 46m 43s
True Declination
0° 00' 00"
Sunlit
Object was in full shadow at epoch
Visualization orbit readout
Latitude
Unknown
Longitude
Unknown
Altitude
Unknown
Speed
Unknown
Apparent Right ascension
Unknown
Apparent Declination
Unknown
Sunlit
N/A
Visualization observer readout
Local Sidereal Time
21:43:51
Azimuth
Unknown
Elevation
Unknown
Doppler factor
Unknown
Orbital elements
Apogee altitude
463.577 km
Perigee altitude
462.423 km
Semi-major axis
6,841.137 km
Eccentricity
0.00008
Inclination
53.1601°
RAAN
341.68°
Arg. of periapsis
83.7664°
True anomaly
276.33389°
Mean anomaly
276.3435°
Eccentric anomaly
276.33869°
Mean motion
3.83575 °/min
Orbital period
93.85 mins
BSTAR
0.00087545
Loading maneuver chart data...
Computing Atmospheric mass density...
Loading historical data...
Loading historical data...
Loading historical data...
Loading historical data...
Loading historical data...
Loading historical data...
Loading historical data...

Documentation

Showing up to 5 results
|